Regional Weather Roundup
Issued by NWS

Home | Current Version | Previous Version | Text Only | Print | Product List | Glossary Off
Versions: 1 2 3 4 5 6 7 8 9 10 11 12 13 14 15 16 17 18 19 20 21 22 23 24 25 26 27 28 29 30 31 32 33 34 35 36 37 38 39 40 41 42 43 44 45 46 47 48 49 50

000
ASUS43 KMPX 061301
RWRMN
WEATHER ROUNDUP FOR MINNESOTA
NATIONAL WEATHER SERVICE TWIN CITIES/CHANHASSEN MN
800 AM CDT FRI MAY 06 2016


NOTE: "FAIR" INDICATES FEW OR NO CLOUDS BELOW 12,000 FEET WITH NO
SIGNIFICANT WEATHER AND/OR OBSTRUCTIONS TO VISIBILITY. N/A MEANS
CURRENT SKY AND/OR WEATHER CONDITIONS ARE NOT AVAILABLE.

MNZ060>063-068>070-061400-
   Twin Cities Metro

CITY           SKY/WX    TMP DP  RH WIND       PRES   REMARKS
BLAINE         SUNNY     68  43  40 SW7       29.86S
SOUTH ST PAUL  SUNNY     65  42  41 W9        29.88S
LAKE ELMO      FAIR      64  45  48 SW8       29.88S
$$
MNZ001>005-007-008-013>017-022>024-027-028-061400-
   Northwest Minnesota

CITY           SKY/WX    TMP DP  RH WIND       PRES   REMARKS
BEMIDJI        SUNNY     69  45  42 SW7       29.75S
HALLOCK        CLOUDY    66  43  42 NW17G23   29.69R
ROSEAU         CLOUDY    70  50  49 SW12      29.67R
WARROAD        MOSUNNY   68  52  56 SW8       29.65S
CROOKSTON      PTSUNNY   63  46  55 S12       29.72S
FOSSTON        MOSUNNY   64  43  45 SW12      29.76R
DETROIT LAKES  SUNNY     68  46  45 S8        29.78F
MOORHEAD       SUNNY     63  45  51 S12       29.75F
MAHNOMEN       FAIR      64  45  49 S13       29.75S
$$
MNZ006-009>011-018-025>026-061400-
   North Central Minnesota

CITY           SKY/WX    TMP DP  RH WIND       PRES   REMARKS
FLAG ISLAND    CLOUDY    66  45  45 W12       29.62R
WASKISH        MOSUNNY   68  46  45 SW12G18   29.72F
BIG FORK       SUNNY     70  43  37 SW10G18   29.74F
LONGVILLE      MOSUNNY   64  43  45 SW5       29.79R
CRANE LAKE     SUNNY     66  43  42 S5        29.72S
ORR            SUNNY     66  39  37 CALM      29.71F
COOK           SUNNY     68  45  42 SW7       29.74F
WALKER         FAIR      66  43  42 SW12      29.76F
$$
MNZ012-019>021-037-061400-
   Northeast Minnesota

CITY           SKY/WX    TMP DP  RH WIND       PRES   REMARKS
ELY            SUNNY     68  43  40 SW6       29.75S
EVELETH        SUNNY     63  41  45 SW7       29.78S
DULUTH HARBOR  SUNNY     64  46  52 SW12      29.77S
TWO HARBORS    MOSUNNY   75  48  38 W9G18     29.74F
SILVER BAY     SUNNY     73  39  29 W8        29.73S
GRAND MARAIS     N/A     43  36  76 E7        29.76R
G MARAIS ARPRT SUNNY     70  39  32 W7G16     29.76S
$$
MNZ029>031-032-039>041-046>048-054>057-064-061400-
   West Central Minnesota

CITY           SKY/WX    TMP DP  RH WIND       PRES   REMARKS
FERGUS FALLS   SUNNY     64  46  52 S8        29.76F
WHEATON        SUNNY     70  52  52 S7        29.79S
MORRIS         SUNNY     63  46  55 S9        29.80S
ELBOW LAKE     FAIR      63  47  56 S10       29.80F
WADENA         SUNNY     66  46  48 SW7       29.79F
GLENWOOD       SUNNY     63  46  55 S7        29.84S
APPLETON       SUNNY     66  48  52 S5        29.80F
BENSON         SUNNY     61  43  51 S6        29.82F
ORTONVILLE     SUNNY     70  48  46 SW8       29.79S
MADISON        SUNNY     70  46  43 SW17      29.80F
WILLMAR        FAIR      63  46  55 S3        29.86S
$$
MNZ033>034-036-042>043-049>051-058-059-061400-
   Central Minnesota

CITY           SKY/WX    TMP DP  RH WIND       PRES   REMARKS
SAUK CENTRE      N/A     62  45  52 S7        29.83F
PAYNESVILLE    MOSUNNY   63  42  47 SW7       29.85S
AITKIN         SUNNY     70  37  30 SW7       29.79S
PINE RIVER     SUNNY     70  46  43 SW6       29.82F
STAPLES        SUNNY     66  43  42 SW7       29.80F
LONG PRAIRIE   FAIR      59  45  58 S5        29.83S
LITTLE FALLS   SUNNY     63  41  45 SW5       29.83S
LITCHFIELD     SUNNY     64  45  48 CALM      29.86S
BUFFALO        SUNNY     62  44  51 SW3       29.87S
MAPLE LAKE     SUNNY     63  46  53 SW3       29.87S
HUTCHINSON     CLOUDY    64  46  51 SW8       29.88S
$$
MNZ037-044-045-052-053-061400-
   East Central Minnesota

CITY           SKY/WX    TMP DP  RH WIND       PRES   REMARKS
PRINCETON      SUNNY     66  45  45 SW6       29.84F
MORA           SUNNY     61  43  51 SW3       29.85S
CAMBRIDGE      SUNNY     66  48  52 SW6       29.83S
RUSH CITY      SUNNY     65  44  45 SW5       29.84F
MOOSE LAKE     SUNNY     68  39  34 SW6       29.79F
HINCKLEY       CLOUDY    61  48  63 SW5       29.83S
CLOQUET        SUNNY     70  39  32 W10       29.79F
MCGREGOR       SUNNY     64  45  48 SW5       29.81S
$$
MNZ071>073-080-081-089-090-097-098-061400-
   Southwest Minnesota

CITY           SKY/WX    TMP DP  RH WIND       PRES   REMARKS
MONTEVIDEO     SUNNY     66  48  52 SW9       29.84S
GRANITE FALLS  MOSUNNY   68  48  48 S12       29.86S
CANBY          SUNNY     68  49  51 SW15G22   29.83S
OLIVIA         SUNNY     61  43  51 S8        29.85F
PIPESTONE      PTSUNNY   61  46  59 SW9       29.91R
WINDOM         SUNNY     63  45  51 SW14      29.91F
JACKSON        SUNNY     61  41  48 SW12      29.94S
TRACY          MOSUNNY   67  46  48 SW21G26   29.87F
SLAYTON        SUNNY     60  43  54 SW17      29.91S
$$
MNZ065>067-074>077-082>085-091>093-061400-
   South Central Minnesota

CITY           SKY/WX    TMP DP  RH WIND       PRES   REMARKS
ST JAMES       SUNNY     61  41  48 SW14      29.91F
GLENCOE        SUNNY     64  47  54 SW8       29.87F
FARIBAULT      SUNNY     59  45  58 S5        29.91F
OWATONNA       SUNNY     63  43  48 SW8       29.92F
WASECA         SUNNY     57  43  58 SW6       29.94S
ALBERT LEA     SUNNY     64  43  45 W8        29.94S
$$
MNZ078>079-086>088-094>096-061400-
   Southeast Minnesota

CITY           SKY/WX    TMP DP  RH WIND       PRES   REMARKS
RED WING       SUNNY     64  43  45 W3        29.88S
STANTON        SUNNY     65  44  46 SW6       29.89S
DODGE CENTER   SUNNY     63  43  48 W13       29.93S
WINONA         SUNNY     55  46  71 CALM      29.91F
AUSTIN         SUNNY     63  43  48 W5        29.94S
PRESTON        SUNNY     63  43  48 W8        29.94R
$$
ABBREVIATIONS USED IN REMARKS
   TC - TEMPERATURES IN CELSIUS
  WCI - WIND CHILL INDEX
   HX - HEAT INDEX
  VSB - VISIBILITY
$$



USA.gov is the U.S. government's official web portal to all federal, state and local government web resources and services.